Regional Weather Roundup
Issued by NWS Jackson, KY

Home | Current Version | Previous Version | Text Only | Print | Product List | Glossary Off
Versions: 1 2 3 4 5 6 7 8 9 10 11 12 13 14 15 16 17 18 19 20 21 22 23 24 25 26 27

000
ASUS43 KJKL 230410
RWRJKL

EAST KENTUCKY HOURLY WEATHER ROUNDUP
NATIONAL WEATHER SERVICE JACKSON KY
1200 AM EDT MON APR 23 2018

NOTE: "FAIR" INDICATES FEW OR NO CLOUDS BELOW 12,000 FEET WITH
NO SIGNIFICANT WEATHER AND/OR OBSTRUCTIONS TO VISIBILITY.

* THESE REPORTS ARE NOT UNDER NWS QUALITY CONTROL AND MAY NOT
  REPORT WEATHER SUCH AS PRECIPITATION AND FOG.

KYZ079-080-083-085-087-088-110-112-115-119-120-230500
...EASTERN KENTUCKY...

CITY           SKY/WX    TMP DP  RH WIND       PRES   REMARKS
JACKSON          N/A     62  35  36 VRB3      30.12F
LONDON           N/A     62  47  57 E8        30.08F
SOMERSET*      DRIZZLE   61  46  59 MISG      30.08S
MONTICELLO*    RAIN      59  52  77 SE9       30.08R
WILLIAMSBURG*  MOCLDY    59  46  63 SE8G16    30.08S
MIDDLESBORO*   RAIN      60  48  64 SE6       30.12S
HARLAN APT*    MOCLDY    59  44  57 E9G18     30.12F
PIKE CO APT*     N/A     61  45  56 SE8       30.16S
BIG SANDY APT*   N/A     63  46  54 SE5       30.15F
MOREHEAD APT*    N/A     61  23  23 E10G17    30.14F HAZE
ASHLAND*         N/A     51  42  71 CALM      30.16S
$$

KYZ035-036-041-042-044-050-067-078-099-230500
...CENTRAL KENTUCKY...

CITY           SKY/WX    TMP DP  RH WIND       PRES   REMARKS
MT STERLING*     N/A     59  30  33 E8G17     30.12F
FLEMING/MASON*   N/A     55  31  40 E9        30.14F
DANVILLE*        N/A     59  36  41 CALM      30.08S
LEXINGTON        N/A     59  30  33 E13       30.09F
FRANKFORT        N/A     59  28  30 E10       30.08F
LOUISVILLE     CLOUDY    63  30  28 E14G23    30.06F
GLASGOW*       RAIN      56  54  95 E5        30.03S
BOWLING GREEN  RAIN      58  57  97 E7        30.02S FOG
$$

KYZ091>093-OHZ055-061-077-WVZ005-015-034-035-042-230500
...SOUTHERN OHIO/WEST VIRGINIA...

CITY           SKY/WX    TMP DP  RH WIND       PRES   REMARKS
COVINGTON      MOCLDY    58  30  34 E15       30.13F
COLUMBUS         N/A     54  28  36 NE8       30.19F
DAYTON           N/A     49  34  56 NE12      30.19F
WILMINGTON       N/A     53  34  48 E8        30.16F
HUNTINGTON       N/A     59  28  30 SE3       30.15S
CHARLESTON       N/A     62  35  36 CALM      30.18S
PINEVILLE*       N/A     57  44  61 MISG      30.26S
BECKLEY          N/A     54  39  57 SE10      30.23F
BLUEFIELD        N/A     53  37  54 SE13G24   30.24F
LOGAN CO APT*    N/A     61  43  51 VRB7G16   30.18S
$$

VAZ002-007-008-TNZ017-027-036-066-071-230500
...SOUTHWEST VIRGINIA/EAST TENNESSEE...

CITY           SKY/WX    TMP DP  RH WIND       PRES   REMARKS
WISE*            N/A     55  43  62 SE9       30.20S
JONESVILLE*      N/A     59  45  58 E8        30.15F
ABINGDON*        N/A     58  42  55 SE7       30.20F
BRISTOL        CLOUDY    59  44  57 E9        30.17S
MORRISTOWN*    CLOUDY    59  46  63 E9        30.10F
SEVIERVILLE*   MOCLDY    57  52  82 NE5       30.07F
KNOXVILLE      LGT RAIN  56  54  93 NE7       30.06F
LAFOLLETTE*    CLOUDY    55  54  94 CALM      30.12F
OAK RIDGE      LGT RAIN  57  57 100 CALM      30.09S
CROSSVILLE     CLOUDY    54  50  86 E15G24    30.02F
NASHVILLE      CLOUDY    58  55  90 E17G25    29.90F
$$

...KEY TO REMARKS...
VSB - VISIBILITY IN MILES
WCI - WIND CHILL INDEX
HX  - HEAT INDEX

$$




USA.gov is the U.S. government's official web portal to all federal, state and local government web resources and services.